EW6058 Weather Reports


Display with metric or nautical units.
time (UTC)temp
F
wind
direction
speed
MPH
gust
MPH
rain 1hr
in
rain 24hr
in
rain mn
in
humidity
%
barometer
mb
20260903003503 63 233 0.0 0.0 0.00 0.00 0.00 87 1020.3
20260903003012 63 233 0.0 0.0 0.00 0.00 0.00 87 1020.3
20260903002509 63 233 0.0 0.0 0.00 0.00 0.00 87 1020.4
20260903002009 63 233 0.0 0.0 0.00 0.00 0.00 86 1020.4
20260903001517 63 233 0.0 0.0 0.00 0.00 0.00 86 1020.5
20260903001009 63 233 0.0 0.0 0.00 0.00 0.00 86 1020.5
20260903000511 64 233 0.0 0.0 0.00 0.00 0.00 85 1020.4
20260903000022 64 233 0.0 0.0 0.00 0.00 0.00 85 1020.6
20260902235512 64 233 0.0 0.0 0.00 0.00 0.00 85 1020.7
20260902235018 64 233 0.0 0.0 0.00 0.00 0.00 85 1020.8
20260902234526 64 233 0.0 0.0 0.00 0.00 0.00 85 1020.8
20260902234014 64 233 0.0 0.0 0.00 0.00 0.00 84 1020.7
20260902233508 65 233 0.0 0.0 0.00 0.00 0.00 84 1020.6
20260902233007 65 233 0.0 0.0 0.00 0.00 0.00 83 1020.7
20260902232512 65 233 0.0 0.0 0.00 0.00 0.00 83 1020.7
20260902232008 65 233 0.0 0.0 0.00 0.00 0.00 81 1020.8
20260902231513 0 233 0.0 0.0 0.00 0.00 0.00 81 1020.7
20260902231007 0 233 0.0 0.0 0.00 0.00 0.00 81 1020.8
20260902230511 0 233 0.0 0.0 0.00 0.00 0.00 81 1021.0
20260902230019 0 233 0.0 0.0 0.00 0.00 0.00 81 1021.0
20260902225512 66 233 0.0 0.0 0.00 0.00 0.00 80 1020.9
20260902225015 66 233 0.0 0.0 0.00 0.00 0.00 1020.9
20260902224533 67 233 0.0 0.0 0.00 0.00 0.00 79 1020.8
20260902224014 67 233 0.0 0.0 0.00 0.00 0.00 79 1020.8
20260902223518 67 233 0.0 0.0 0.00 0.00 0.00 79 1020.6
20260902223031 67 233 0.0 0.0 0.00 0.00 0.00 79 1020.8
20260902222516 67 233 0.0 0.0 0.00 0.00 0.00 79 1021.0
20260902222006 67 233 0.0 0.0 0.00 0.00 0.00 78 1021.2
20260902221509 67 233 0.0 0.0 0.00 0.00 0.00 78 1021.2
20260902221010 67 234 0.0 0.0 0.00 0.00 0.00 77 1021.0
20260902220511 67 234 0.0 0.0 0.00 0.00 0.00 77 1020.7
20260902220016 67 235 0.0 0.0 0.00 0.00 0.00 77 1020.8
20260902215510 68 238 0.0 0.0 0.00 0.00 0.00 75 1020.7
20260902215012 68 228 0.0 0.0 0.00 0.01 0.00 76 1020.7
20260902214525 68 228 0.0 0.0 0.00 0.01 0.00 75 1020.9
20260902214012 68 226 0.0 0.0 0.00 0.01 0.00 74 1021.1
20260902213512 68 226 0.0 0.0 0.00 0.01 0.00 74 1021.0
20260902213030 68 222 0.0 0.0 0.00 0.01 0.00 72 1021.0
20260902212514 68 229 0.0 0.0 0.00 0.01 0.00 73 1021.0
20260902212015 68 229 0.0 0.0 0.00 0.01 0.00 72 1021.1
20260902211532 68 229 0.0 0.0 0.00 0.01 0.00 73 1021.1
20260902211018 68 229 0.0 0.0 0.00 0.01 0.00 72 1021.0
20260902210510 68 229 0.0 0.0 0.00 0.01 0.00 70 1021.0
20260902210018 68 229 0.0 0.0 0.00 0.01 0.00 71 1021.0
20260902205509 69 232 0.0 0.0 0.00 0.01 0.00 73 1021.0
20260902205009 69 203 0.0 0.0 0.00 0.02 0.00 70 1021.1
20260902204522 69 212 0.0 0.0 0.00 0.02 0.00 70 1020.8
20260902204014 69 215 0.0 0.0 0.00 0.02 0.00 71 1020.7
20260902203514 69 215 0.0 0.0 0.00 0.02 0.00 69 1020.9
20260902203023 69 214 0.0 0.0 0.00 0.02 0.00 69 1020.9
20260902202516 69 224 0.0 0.0 0.00 0.02 0.00 69 1020.9
20260902202014 69 224 0.0 0.0 0.00 0.02 0.00 66 1020.9
20260902201535 70 223 0.0 0.0 0.00 0.02 0.00 69 1021.1
20260902201016 70 236 0.0 0.0 0.00 0.02 0.00 68 1021.1
20260902200516 70 168 0.0 0.0 0.00 0.02 0.00 69 1021.2
20260902200048 70 87 0.0 0.0 0.00 0.02 0.00 69 1021.3
20260902195515 70 237 0.0 0.0 0.00 0.02 0.00 70 1021.4
20260902195009 70 248 0.0 0.0 0.00 0.02 0.00 68 1021.4
20260902194521 70 141 0.0 0.0 0.00 0.02 0.00 68 1021.4
20260902194012 70 222 0.0 0.0 0.00 0.02 0.00 69 1021.5
20260902193512 70 239 0.0 0.0 0.00 0.02 0.00 69 1021.4
20260902193024 70 214 0.0 0.0 0.00 0.02 0.00 69 1021.5
20260902192514 69 214 0.0 0.0 0.00 0.02 0.00 68 1021.4
20260902192019 69 240 0.0 0.0 0.00 0.02 0.00 68 1021.4
20260902191530 70 245 0.0 0.0 0.00 0.02 0.00 67 1021.4
20260902191013 70 298 0.0 0.0 0.00 0.03 0.00 65 1021.4
20260902190523 70 198 0.0 0.0 0.00 0.03 0.00 65 1021.3
20260902190046 70 202 0.0 0.0 0.00 0.03 0.00 70 1021.3
20260902185516 70 256 0.0 0.0 0.00 0.03 0.00 68 1021.3
20260902185018 70 195 0.0 0.0 0.00 0.04 0.00 66 1021.3
20260902184534 70 235 0.0 0.0 0.00 0.05 0.00 68 1021.4
20260902184017 70 233 0.0 0.0 0.00 0.05 0.00 67 1021.4
20260902183510 70 227 0.0 0.0 0.00 0.05 0.00 70 1021.4
20260902183021 71 219 0.0 0.0 0.00 0.05 0.00 72 1021.4
20260902182510 71 219 0.0 0.0 0.00 0.05 0.00 69 1021.6
20260902182014 71 219 0.0 0.0 0.00 0.05 0.00 67 1021.7
20260902181527 71 219 0.0 0.0 0.00 0.05 0.00 68 1021.7
20260902181015 71 248 0.0 0.0 0.00 0.05 0.00 68 1021.7
20260902180514 71 240 0.0 0.0 0.00 0.05 0.00 67 1021.7
20260902180032 71 202 0.0 0.0 0.00 0.05 0.00 67 1021.6
20260902175518 71 215 0.0 0.0 0.00 0.05 0.00 68 1021.6
20260902175016 71 212 0.0 0.0 0.00 0.05 0.00 66 1021.6
20260902174532 71 170 0.0 0.0 0.00 0.05 0.00 66 1021.5
20260902174017 72 205 0.0 0.0 0.00 0.05 0.00 68 1021.5
20260902173520 72 245 0.0 0.0 0.00 0.05 0.00 70 1021.5
20260902173033 72 243 0.0 0.0 0.00 0.05 0.00 70 1021.5
20260902172509 72 314 0.0 0.0 0.00 0.05 0.00 68 1021.7
20260902172010 71 306 0.0 0.0 0.00 0.05 0.00 69 1021.9
20260902171506 71 206 0.0 0.0 0.00 0.05 0.00 66 1021.7
20260902171010 72 196 0.0 0.0 0.00 0.05 0.00 67 1021.8
20260902170502 72 199 0.0 0.0 0.00 0.05 0.00 65 1021.8
20260902170006 72 170 0.0 0.0 0.00 0.05 0.00 67 1021.8
20260902165503 72 172 0.0 0.0 0.00 0.05 0.00 69 1021.8
20260902165007 72 227 0.0 0.0 0.00 0.05 0.00 67 1021.8
20260902164511 72 240 0.0 0.0 0.00 0.05 0.00 68 1021.7
20260902164006 72 240 0.0 0.0 0.00 0.05 0.00 64 1021.9
20260902163507 73 240 0.0 0.0 0.00 0.05 0.00 67 1021.9
20260902163008 73 193 0.0 0.0 0.00 0.05 0.00 68 1021.9
20260902162505 73 236 0.0 0.0 0.00 0.05 0.00 65 1022.0
20260902162006 73 55 0.0 0.0 0.00 0.05 0.00 66 1022.0
20260902161510 73 257 0.0 0.0 0.00 0.05 0.00 65 1022.2
20260902161006 73 229 0.0 0.0 0.00 0.05 0.00 68 1022.2
20260902160507 73 229 0.0 0.0 0.00 0.05 0.00 66 1022.2
20260902160012 73 251 0.0 0.0 0.00 0.05 0.00 68 1022.2
20260902155503 73 1 0.0 0.0 0.00 0.05 0.00 68 1022.0
20260902155002 73 262 0.0 0.0 0.00 0.05 0.00 66 1022.0
20260902154503 73 263 0.0 0.0 0.00 0.05 0.00 69 1022.1
20260902154006 73 192 0.0 0.0 0.00 0.05 0.00 68 1022.1
20260902153509 73 60 0.0 0.0 0.00 0.05 0.00 66 1022.0
20260902153010 73 240 0.0 0.0 0.00 0.05 0.00 70 1022.0
20260902152508 73 342 0.0 0.0 0.00 0.05 0.00 72 1021.9
20260902152007 73 215 0.0 0.0 0.00 0.05 0.00 69 1021.9
20260902151509 72 215 0.0 0.0 0.00 0.05 0.00 73 1022.0
20260902151004 72 293 0.0 0.0 0.00 0.05 0.00 75 1022.2
20260902150508 71 226 0.0 0.0 0.00 0.05 0.00 75 1022.1
20260902150012 71 226 0.0 0.0 0.00 0.05 0.00 72 1022.0
20260902145507 71 274 0.0 0.0 0.00 0.05 0.00 73 1021.8
20260902145007 70 237 0.0 0.0 0.00 0.05 0.00 72 1021.8
20260902144512 70 238 0.0 0.0 0.00 0.05 0.00 73 1021.8
20260902144008 71 274 0.0 0.0 0.00 0.05 0.00 74 1021.7
20260902143507 70 293 0.0 0.0 0.00 0.05 0.00 76 1021.6
20260902143014 70 209 0.0 0.0 0.00 0.05 0.00 76 1021.7
20260902142507 70 224 0.0 0.0 0.00 0.05 0.00 75 1021.6
20260902142007 69 241 0.0 0.0 0.00 0.05 0.00 77 1021.5
20260902141512 69 311 0.0 0.0 0.00 0.05 0.00 76 1021.5
20260902141007 69 285 0.0 0.0 0.00 0.06 0.00 80 1021.4
20260902140507 68 226 0.0 0.0 0.00 0.06 0.00 79 1021.4
20260902140013 68 175 0.0 0.0 0.00 0.06 0.00 80 1021.3
20260902135509 68 263 0.0 0.0 0.00 0.06 0.00 82 1021.4
20260902135008 67 201 0.0 0.0 0.00 0.06 0.00 79 1021.4
20260902134512 67 314 0.0 0.0 0.00 0.06 0.00 80 1021.3
20260902134009 67 205 0.0 0.0 0.00 0.06 0.00 84 1021.3
20260902133508 67 226 0.0 0.0 0.00 0.06 0.00 85 1021.1
20260902133012 66 247 0.0 0.0 0.00 0.06 0.00 86 1021.1
20260902132504 66 235 0.0 0.0 0.00 0.06 0.00 85 1021.3
20260902132007 65 255 0.0 0.0 0.00 0.06 0.00 87 1021.3
20260902131510 65 239 0.0 0.0 0.00 0.06 0.00 1021.5
20260902131008 65 194 0.0 0.0 0.00 0.06 0.00 93 1021.6
20260902130510 65 235 0.0 0.0 0.00 0.06 0.00 93 1021.5
20260902130014 64 192 0.0 0.0 0.00 0.06 0.00 92 1021.3
20260902125508 64 212 0.0 0.0 0.00 0.06 0.00 93 1021.4
20260902125011 64 212 0.0 0.0 0.00 0.06 0.00 94 1021.4
20260902124514 63 211 0.0 0.0 0.00 0.06 0.00 95 1021.4
20260902124011 63 211 0.0 0.0 0.00 0.06 0.00 95 1021.4
20260902123511 63 211 0.0 0.0 0.00 0.06 0.00 94 1021.5
20260902123015 62 211 0.0 0.0 0.00 0.06 0.00 95 1021.5
20260902122512 62 211 0.0 0.0 0.00 0.06 0.00 96 1021.6
20260902122009 62 211 0.0 0.0 0.00 0.06 0.00 96 1021.6
20260902121514 62 211 0.0 0.0 0.00 0.06 0.00 96 1021.7
20260902121008 61 211 0.0 0.0 0.00 0.06 0.00 97 1021.8
20260902120509 61 211 0.0 0.0 0.00 0.06 0.00 97 1021.7
20260902120015 60 199 0.0 0.0 0.00 0.06 0.00 97 1021.7
20260902115509 60 199 0.0 0.0 0.00 0.06 0.00 97 1021.7
20260902115012 59 199 0.0 0.0 0.00 0.06 0.00 96 1021.6
20260902114523 59 199 0.0 0.0 0.00 0.06 0.00 96 1021.6
20260902114010 59 199 0.0 0.0 0.00 0.06 0.00 96 1021.5
20260902113510 59 199 0.0 0.0 0.00 0.06 0.00 95 1021.6
20260902113017 58 199 0.0 0.0 0.00 0.06 0.00 95 1021.6
20260902112511 58 199 0.0 0.0 0.00 0.06 0.00 95 1021.5
20260902112013 58 199 0.0 0.0 0.00 0.06 0.00 95 1021.4
20260902111517 58 199 0.0 0.0 0.00 0.06 0.00 95 1021.3
20260902111012 58 199 0.0 0.0 0.00 0.06 0.00 95 1021.3
20260902110511 58 199 0.0 0.0 0.00 0.06 0.00 95 1021.1
20260902110018 58 199 0.0 0.0 0.00 0.06 0.00 95 1021.0
20260902105512 58 199 0.0 0.0 0.00 0.06 0.00 95 1020.9
20260902105010 58 199 0.0 0.0 0.00 0.06 0.00 95 1020.9
20260902104528 58 199 0.0 0.0 0.00 0.06 0.00 95 1020.9
20260902104013 58 199 0.0 0.0 0.00 0.06 0.00 95 1020.9
20260902103514 58 199 0.0 0.0 0.00 0.06 0.00 95 1020.9
20260902103019 58 199 0.0 0.0 0.00 0.06 0.00 95 1020.8
20260902102511 58 199 0.0 0.0 0.00 0.06 0.00 95 1020.8
20260902102015 58 199 0.0 0.0 0.00 0.06 0.00 95 1020.7
20260902101519 58 199 0.0 0.0 0.00 0.06 0.00 95 1020.8
20260902101013 58 199 0.0 0.0 0.00 0.06 0.00 95 1020.9
20260902100514 58 199 0.0 0.0 0.00 0.06 0.00 95 1020.8
20260902100024 58 199 0.0 0.0 0.00 0.06 0.00 95 1020.7
20260902095513 58 199 0.0 0.0 0.00 0.06 0.00 95 1020.6
20260902095014 58 199 0.0 0.0 0.00 0.06 0.00 95 1020.4
20260902094524 58 199 0.0 0.0 0.00 0.06 0.00 95 1020.5
20260902094015 58 199 0.0 0.0 0.00 0.06 0.00 95 1020.5
20260902093514 58 199 0.0 0.0 0.00 0.06 0.00 95 1020.5
20260902093020 58 199 0.0 0.0 0.00 0.06 0.00 95 1020.4
20260902092517 58 199 0.0 0.0 0.00 0.06 0.00 95 1020.4
20260902092017 58 199 0.0 0.0 0.00 0.06 0.00 95 1020.3
20260902091539 58 199 0.0 0.0 0.00 0.06 0.00 95 1020.4
20260902091012 58 199 0.0 0.0 0.00 0.06 0.00 95 1020.2
20260902090514 58 199 0.0 0.0 0.00 0.06 0.00 95 1020.1
20260902090026 59 199 0.0 0.0 0.00 0.06 0.00 95 1020.1
20260902085516 59 199 0.0 0.0 0.00 0.06 0.00 95 1020.3
20260902085015 59 199 0.0 0.0 0.00 0.06 0.00 95 1020.1
20260902084527 59 199 0.0 0.0 0.00 0.06 0.00 95 1020.1
20260902084017 59 199 0.0 0.0 0.00 0.06 0.00 95 1020.0
20260902083515 59 199 0.0 0.0 0.00 0.06 0.00 95 1020.1
20260902083023 59 199 0.0 0.0 0.00 0.06 0.00 95 1020.0
20260902082515 59 199 0.0 0.0 0.00 0.06 0.00 95 1019.9
20260902082012 60 199 0.0 0.0 0.00 0.06 0.00 95 1020.0
20260902081522 60 199 0.0 0.0 0.00 0.06 0.00 95 1020.1
20260902081013 60 199 0.0 0.0 0.00 0.06 0.00 95 1020.1
20260902080503 60 199 0.0 0.0 0.00 0.06 0.00 95 1020.0
20260902080006 60 199 0.0 0.0 0.00 0.06 0.00 96 1020.0
20260902075504 60 199 0.0 0.0 0.00 0.06 0.00 96 1020.1
20260902075006 60 199 0.0 0.0 0.00 0.06 0.00 96 1020.2
20260902074508 60 199 0.0 0.0 0.00 0.06 0.00 96 1020.1
20260902074008 60 199 0.0 0.0 0.00 0.06 0.00 96 1019.9
20260902073507 60 199 0.0 0.0 0.00 0.06 0.00 96 1019.6
20260902073017 60 199 0.0 0.0 0.00 0.06 0.00 96 1019.5
20260902072512 60 199 0.0 0.0 0.00 0.06 0.00 96 1019.3
20260902072011 60 199 0.0 0.0 0.00 0.06 0.00 96 1019.5
20260902071525 60 199 0.0 0.0 0.00 0.06 0.00 96 1019.6
20260902071012 59 199 0.0 0.0 0.00 0.06 0.00 96 1019.8
20260902070514 59 199 0.0 0.0 0.00 0.06 0.00 96 1019.8
20260902070026 59 199 0.0 0.0 0.00 0.06 0.00 96 1019.7
20260902065516 59 199 0.0 0.0 0.00 0.06 0.00 96 1019.7
20260902065003 59 199 0.0 0.0 0.00 0.06 0.00 96 1019.7
20260902064505 59 199 0.0 0.0 0.00 0.06 0.00 96 1019.9
20260902064004 59 199 0.0 0.0 0.00 0.06 0.00 96 1019.9
20260902063507 59 200 0.0 0.0 0.00 0.06 0.00 96 1019.9
20260902063013 59 200 0.0 0.0 0.00 0.06 0.00 96 1020.0
20260902062511 59 200 0.0 0.0 0.00 0.06 0.00 96 1020.2
20260902062007 59 200 0.0 0.0 0.00 0.06 0.00 95 1020.1
20260902061515 59 200 0.0 0.0 0.00 0.06 0.00 95 1020.2
20260902061012 59 200 0.0 0.0 0.00 0.06 0.00 95 1020.1
20260902060511 59 200 0.0 0.0 0.00 0.06 0.00 95 1020.0
20260902060021 59 200 0.0 0.0 0.00 0.06 0.00 95 1020.0
20260902055517 59 200 0.0 0.0 0.00 0.06 0.00 95 1019.8
20260902055016 59 200 0.0 0.0 0.00 0.06 0.00 95 1019.7
20260902054526 59 200 0.0 0.0 0.00 0.06 0.00 95 1019.6
20260902054015 59 200 0.0 0.0 0.00 0.06 0.00 95 1019.6
20260902053504 59 200 0.0 0.0 0.00 0.06 0.00 95 1019.4
20260902053010 59 200 0.0 0.0 0.00 0.06 0.00 95 1019.3
20260902052510 59 200 0.0 0.0 0.00 0.06 0.00 95 1019.2
20260902052009 59 200 0.0 0.0 0.00 0.06 0.00 95 1019.2
20260902051511 59 200 0.0 0.0 0.00 0.06 0.00 95 1019.1
20260902051015 59 200 0.0 0.0 0.00 0.06 0.00 96 1019.3
20260902050509 59 200 0.0 0.0 0.00 0.06 0.00 96 1019.3
20260902050018 59 200 0.0 0.0 0.00 0.06 0.00 96 1019.2
20260902045514 59 200 0.0 0.0 0.00 0.06 0.00 96 1019.1
20260902045012 59 200 0.0 0.0 0.00 0.06 0.00 96 1019.0
20260902044524 59 200 0.0 0.0 0.00 0.06 0.00 96 1018.9
20260902044017 59 200 0.0 0.0 0.00 0.06 0.00 96 1018.9
20260902043516 59 200 0.0 0.0 0.00 0.06 0.00 96 1018.9
20260902043028 59 200 0.0 0.0 0.00 0.06 0.00 96 1019.0
20260902042517 59 200 0.0 0.0 0.00 0.06 0.00 95 1019.1
20260902042006 59 200 0.0 0.0 0.00 0.06 0.00 95 1019.2
20260902041534 59 200 0.0 0.0 0.00 0.06 0.00 95 1019.2
20260902041006 59 200 0.0 0.0 0.00 0.06 0.00 95 1019.2
20260902040511 59 200 0.0 0.0 0.00 0.06 0.00 95 1019.2
20260902040014 59 200 0.0 0.0 0.00 0.06 0.00 95 1019.3
20260902035510 59 200 0.0 0.0 0.00 0.06 0.06 95 1019.2
20260902035011 59 200 0.0 0.0 0.00 0.06 0.06 95 1019.1
20260902034523 59 200 0.0 0.0 0.00 0.06 0.06 95 1019.1
20260902034013 59 200 0.0 0.0 0.00 0.06 0.06 95 1019.2
20260902033515 59 200 0.0 0.0 0.00 0.06 0.06 95 1019.2
20260902033035 59 200 0.0 0.0 0.00 0.06 0.06 95 1019.2
20260902032516 59 200 0.0 0.0 0.00 0.06 0.06 95 1019.3
20260902032021 59 200 0.0 0.0 0.00 0.06 0.06 95 1019.2
20260902031534 59 200 0.0 0.0 0.00 0.06 0.06 95 1019.3
20260902031018 59 200 0.0 0.0 0.00 0.06 0.06 95 1019.2
20260902030506 59 200 0.0 0.0 0.00 0.06 0.06 95 1019.0
20260902030010 59 200 0.0 0.0 0.00 0.06 0.06 95 1018.9
20260902025508 59 200 0.0 0.0 0.00 0.06 0.06 95 1019.0
20260902025010 59 200 0.0 0.0 0.00 0.06 0.06 95 1018.9
20260902024516 59 200 0.0 0.0 0.00 0.06 0.06 95 1018.9
20260902024012 59 200 0.0 0.0 0.00 0.06 0.06 95 1018.9
20260902023513 59 200 0.0 0.0 0.00 0.06 0.06 95 1018.9
20260902023025 59 200 0.0 0.0 0.00 0.06 0.06 95 1018.9
20260902022517 59 200 0.0 0.0 0.00 0.06 0.06 95 1018.8
20260902022016 59 200 0.0 0.0 0.00 0.06 0.06 94 1018.8
20260902021534 59 200 0.0 0.0 0.00 0.06 0.06 94 1018.7
20260902021016 59 200 0.0 0.0 0.00 0.06 0.06 95 1018.7
20260902020517 59 200 0.0 0.0 0.00 0.06 0.06 94 1018.6
20260902020031 59 200 0.0 0.0 0.00 0.06 0.06 95 1018.6
20260902015517 59 200 0.0 0.0 0.00 0.06 0.06 95 1018.6
20260902015009 59 200 0.0 0.0 0.00 0.06 0.06 95 1018.7
20260902014527 59 200 0.0 0.0 0.00 0.06 0.06 95 1018.6
20260902014015 59 200 0.0 0.0 0.00 0.06 0.06 95 1018.7
20260902013513 59 200 0.0 0.0 0.00 0.06 0.06 94 1018.7
20260902013018 59 200 0.0 0.0 0.00 0.06 0.06 94 1018.6
20260902012512 60 200 0.0 0.0 0.00 0.06 0.06 94 1018.5
20260902012013 60 200 0.0 0.0 0.00 0.06 0.06 94 1018.5
20260902011535 60 200 0.0 0.0 0.00 0.06 0.06 94 1018.6
20260902011015 60 200 0.0 0.0 0.00 0.06 0.06 94 1018.5
20260902010515 60 200 0.0 0.0 0.00 0.06 0.06 94 1018.6
20260902010051 60 200 0.0 0.0 0.00 0.06 0.06 95 1018.8
20260902005516 60 200 0.0 0.0 0.00 0.06 0.06 95 1018.8
20260902005018 60 200 0.0 0.0 0.00 0.06 0.06 95 1018.8
20260902004539 60 200 0.0 0.0 0.00 0.06 0.06 95 1018.8
20260902004018 60 200 0.0 0.0 0.00 0.06 0.06 95 1018.9